ARG308 SAEZ-SAWH

Flight info

Callsign ARG308
Flight time 3h 13m
Altitude 36000
Route GBE1A GBE UZ117 DIL UT662 SUSDA/N0449F380 UT662 ASKAS UT704 DABLI DABLI1Q
Aircraft B38M/M-SDE1FGHILORVWXY/HB1

Departure

Time 2026-05-06 10:25
Airport Ezeiza International Airport - Ministro Pistarini (SAEZ)

Arrival

Time 2026-05-06 13:38
Airport Ushuaia - Malvinas Argentinas International Airport (SAWH)
Time Latitude Longitude Altitude Speed Heading
2026-05-06 10:11 -34.81659 -58.54258 77 ft 0 kts 13°
2026-05-06 10:17 -34.81676 -58.54263 71 ft 4 kts 13°
2026-05-06 10:17 -34.81702 -58.54270 69 ft 4 kts 12°
2026-05-06 10:18 -34.81729 -58.54276 69 ft 4 kts
2026-05-06 10:18 -34.81755 -58.54275 72 ft 4 kts 345°
2026-05-06 10:18 -34.81775 -58.54261 68 ft 4 kts 293°
2026-05-06 10:18 -34.81777 -58.54253 68 ft 2 kts 276°
2026-05-06 10:20 -34.81777 -58.54255 68 ft 1 kts 276°
2026-05-06 10:20 -34.81775 -58.54272 69 ft 3 kts 278°
2026-05-06 10:21 -34.81771 -58.54306 76 ft 5 kts 278°
2026-05-06 10:21 -34.81765 -58.54355 72 ft 7 kts 278°
2026-05-06 10:21 -34.81757 -58.54420 78 ft 9 kts 278°
2026-05-06 10:21 -34.81751 -58.54501 70 ft 10 kts 270°
2026-05-06 10:22 -34.81762 -58.54595 77 ft 12 kts 256°
2026-05-06 10:22 -34.81779 -58.54704 72 ft 14 kts 267°
2026-05-06 10:22 -34.81766 -58.54829 72 ft 16 kts 283°
2026-05-06 10:22 -34.81741 -58.54966 78 ft 17 kts 283°
2026-05-06 10:23 -34.81714 -58.55116 75 ft 19 kts 282°
2026-05-06 10:23 -34.81695 -58.55247 70 ft 13 kts 267°
2026-05-06 10:23 -34.81742 -58.55337 72 ft 14 kts 206°
2026-05-06 10:23 -34.81833 -58.55320 83 ft 14 kts 153°
2026-05-06 10:24 -34.81917 -58.55269 83 ft 14 kts 113°
2026-05-06 10:24 -34.81949 -58.55099 81 ft 46 kts 102°
2026-05-06 10:24 -34.82072 -58.54413 86 ft 118 kts 102°
2026-05-06 10:24 -34.82289 -58.53209 201 ft 163 kts 101°
2026-05-06 10:25 -34.82545 -58.51795 742 ft 179 kts 101°
2026-05-06 10:25 -34.82862 -58.50308 1577 ft 181 kts 110°
2026-05-06 10:25 -34.83555 -58.48943 2146 ft 203 kts 128°
2026-05-06 10:25 -34.84635 -58.47678 2560 ft 230 kts 134°
2026-05-06 10:26 -34.85439 -58.46768 2812 ft 248 kts 130°
2026-05-06 10:26 -34.86430 -58.45017 3501 ft 257 kts 117°
2026-05-06 10:26 -34.87355 -58.43092 4221 ft 269 kts 118°
2026-05-06 10:26 -34.88304 -58.41111 5127 ft 273 kts 118°
2026-05-06 10:27 -34.89278 -58.39098 5952 ft 280 kts 123°
2026-05-06 10:27 -34.90714 -58.37499 6757 ft 284 kts 156°
2026-05-06 10:27 -34.92643 -58.37061 7523 ft 287 kts 189°
2026-05-06 10:27 -34.94467 -58.37934 8313 ft 284 kts 222°
2026-05-06 10:28 -34.95617 -58.39821 9125 ft 278 kts 252°
2026-05-06 10:28 -34.96285 -58.42042 9940 ft 284 kts 249°
2026-05-06 10:28 -34.97208 -58.44228 10485 ft 298 kts 246°
2026-05-06 10:28 -34.98085 -58.46599 10867 ft 314 kts 253°
2026-05-06 10:29 -34.98852 -58.49138 11405 ft 326 kts 244°
2026-05-06 10:29 -35.00406 -58.51155 12284 ft 335 kts 216°
2026-05-06 10:29 -35.02635 -58.52109 13007 ft 349 kts 188°
2026-05-06 10:29 -35.05075 -58.51939 13801 ft 355 kts 177°
2026-05-06 10:30 -35.07558 -58.51683 14431 ft 359 kts 179°
2026-05-06 10:30 -35.10060 -58.51466 15148 ft 362 kts 180°
2026-05-06 10:30 -35.12577 -58.51261 15830 ft 365 kts 180°
2026-05-06 10:30 -35.15124 -58.51062 16509 ft 368 kts 181°
2026-05-06 10:31 -35.17689 -58.50866 17186 ft 371 kts 181°
2026-05-06 10:31 -35.20276 -58.50668 17840 ft 375 kts 181°
2026-05-06 10:31 -35.22896 -58.50469 18436 ft 378 kts 181°
2026-05-06 10:31 -35.25533 -58.50268 19010 ft 381 kts 182°
2026-05-06 10:32 -35.28188 -58.50066 19561 ft 384 kts 182°
2026-05-06 10:32 -35.30869 -58.49862 20105 ft 387 kts 182°
2026-05-06 10:32 -35.33563 -58.49656 20633 ft 390 kts 182°
2026-05-06 10:32 -35.36287 -58.49448 21181 ft 393 kts 182°
2026-05-06 10:33 -35.38992 -58.49242 21681 ft 396 kts 182°
2026-05-06 10:33 -35.41757 -58.49031 22224 ft 399 kts 183°
2026-05-06 10:33 -35.44542 -58.48818 22735 ft 403 kts 183°
2026-05-06 10:33 -35.47347 -58.48603 23246 ft 406 kts 183°
2026-05-06 10:34 -35.50176 -58.48387 23705 ft 409 kts 183°
2026-05-06 10:34 -35.53027 -58.48168 24135 ft 411 kts 184°
2026-05-06 10:34 -35.55891 -58.47949 24570 ft 413 kts 184°
2026-05-06 10:34 -35.58768 -58.47728 24989 ft 415 kts 184°
2026-05-06 10:35 -35.61658 -58.47506 25447 ft 417 kts 184°
2026-05-06 10:35 -35.64560 -58.47283 25868 ft 419 kts 184°
2026-05-06 10:35 -35.67473 -58.47059 26281 ft 421 kts 185°
2026-05-06 10:35 -35.70406 -58.46834 26685 ft 423 kts 185°
2026-05-06 10:36 -35.73345 -58.46660 27065 ft 420 kts 191°
2026-05-06 10:36 -35.76151 -58.47271 27396 ft 404 kts 207°
2026-05-06 10:36 -35.78774 -58.48496 27711 ft 405 kts 209°
2026-05-06 10:36 -35.81409 -58.49762 28094 ft 406 kts 210°
2026-05-06 10:37 -35.84037 -58.51059 28509 ft 408 kts 211°
2026-05-06 10:37 -35.86665 -58.52378 28894 ft 409 kts 211°
2026-05-06 10:37 -35.89269 -58.53700 29279 ft 410 kts 211°
2026-05-06 10:37 -35.91947 -58.55064 29643 ft 412 kts 212°
2026-05-06 10:38 -35.94568 -58.56402 29995 ft 414 kts 212°
2026-05-06 10:38 -35.97234 -58.57764 30295 ft 416 kts 212°
2026-05-06 10:38 -35.99906 -58.59131 30597 ft 417 kts 212°
2026-05-06 10:38 -36.02593 -58.60506 30889 ft 419 kts 212°
2026-05-06 10:39 -36.05291 -58.61888 31174 ft 420 kts 212°
2026-05-06 10:39 -36.07993 -58.63273 31497 ft 422 kts 212°
2026-05-06 10:39 -36.10716 -58.64671 31795 ft 423 kts 212°
2026-05-06 10:39 -36.13435 -58.66066 32094 ft 424 kts 213°
2026-05-06 10:40 -36.16158 -58.67465 32456 ft 423 kts 213°
2026-05-06 10:40 -36.18877 -58.68863 32859 ft 422 kts 213°
2026-05-06 10:40 -36.21585 -58.70256 33250 ft 421 kts 213°
2026-05-06 10:40 -36.24282 -58.71645 33647 ft 419 kts 213°
2026-05-06 10:41 -36.26969 -58.73030 34016 ft 418 kts 213°
2026-05-06 10:41 -36.29650 -58.74412 34349 ft 416 kts 213°
2026-05-06 10:41 -36.32315 -58.75787 34689 ft 414 kts 214°
2026-05-06 10:41 -36.34971 -58.77159 35046 ft 412 kts 214°
2026-05-06 10:42 -36.37610 -58.78523 35408 ft 409 kts 214°
2026-05-06 10:42 -36.40234 -58.79880 35711 ft 408 kts 214°
2026-05-06 10:42 -36.42851 -58.81235 35952 ft 408 kts 214°
2026-05-06 10:42 -36.45472 -58.82592 35985 ft 407 kts 214°
2026-05-06 10:43 -36.50672 -58.85289 35986 ft 404 kts 214°
2026-05-06 10:44 -36.58461 -58.89335 36005 ft 405 kts 214°
2026-05-06 10:44 -36.63648 -58.92035 35980 ft 404 kts 214°
2026-05-06 10:45 -36.68836 -58.94739 35980 ft 404 kts 214°
2026-05-06 10:45 -36.74017 -58.97444 35980 ft 404 kts 214°
2026-05-06 10:46 -36.79201 -59.00154 35978 ft 404 kts 214°
2026-05-06 10:46 -36.84382 -59.02866 35989 ft 404 kts 214°
2026-05-06 10:47 -36.89578 -59.05590 35978 ft 407 kts 214°
2026-05-06 10:47 -36.94783 -59.08323 35982 ft 408 kts 214°
2026-05-06 10:48 -37.00050 -59.11093 35983 ft 408 kts 215°
2026-05-06 10:48 -37.05256 -59.13834 35985 ft 408 kts 215°
2026-05-06 10:49 -37.10484 -59.16592 35996 ft 407 kts 215°
2026-05-06 10:49 -37.15685 -59.19338 35986 ft 405 kts 215°
2026-05-06 10:50 -37.20879 -59.22085 35987 ft 405 kts 215°
2026-05-06 10:50 -37.23567 -59.23292 35980 ft 417 kts 207°
2026-05-06 10:50 -37.26346 -59.24290 35999 ft 416 kts 209°
2026-05-06 10:51 -37.31875 -59.26397 36007 ft 415 kts 210°
2026-05-06 10:51 -37.37383 -59.28534 35987 ft 414 kts 210°
2026-05-06 10:52 -37.42881 -59.30677 35971 ft 414 kts 210°
2026-05-06 10:52 -37.48379 -59.32823 35990 ft 415 kts 210°
2026-05-06 10:53 -37.53893 -59.34978 35988 ft 415 kts 210°
2026-05-06 10:53 -37.59416 -59.37140 35989 ft 415 kts 210°
2026-05-06 10:54 -37.64932 -59.39303 35977 ft 415 kts 210°
2026-05-06 10:54 -37.70455 -59.41472 35987 ft 416 kts 210°
2026-05-06 10:55 -37.75976 -59.43644 35980 ft 415 kts 210°
2026-05-06 10:55 -37.81459 -59.45803 35992 ft 416 kts 210°
2026-05-06 10:56 -37.86991 -59.47987 35981 ft 417 kts 210°
2026-05-06 10:56 -37.92526 -59.50174 35980 ft 416 kts 210°
2026-05-06 10:57 -37.98059 -59.52364 35980 ft 416 kts 210°
2026-05-06 10:57 -38.03588 -59.54556 35989 ft 417 kts 210°
2026-05-06 10:58 -38.09125 -59.56755 35980 ft 417 kts 210°
2026-05-06 10:58 -38.14663 -59.58957 35983 ft 417 kts 210°
2026-05-06 10:59 -38.20207 -59.61166 35990 ft 418 kts 210°
2026-05-06 10:59 -38.25770 -59.63384 36008 ft 420 kts 210°
2026-05-06 11:00 -38.31353 -59.65614 35983 ft 421 kts 210°
2026-05-06 11:00 -38.36946 -59.67845 35983 ft 421 kts 210°
2026-05-06 11:01 -38.42546 -59.70082 35988 ft 421 kts 210°
2026-05-06 11:01 -38.48135 -59.72318 36005 ft 422 kts 209°
2026-05-06 11:02 -38.53758 -59.74572 35987 ft 424 kts 209°
2026-05-06 11:02 -38.59392 -59.76834 35986 ft 424 kts 209°
2026-05-06 11:03 -38.65027 -59.79100 35983 ft 424 kts 209°
2026-05-06 11:03 -38.70658 -59.81368 36005 ft 425 kts 209°
2026-05-06 11:04 -38.76309 -59.83648 35987 ft 426 kts 209°
2026-05-06 11:04 -38.81970 -59.85936 35986 ft 427 kts 209°
2026-05-06 11:05 -38.87632 -59.88228 35989 ft 427 kts 209°
2026-05-06 11:05 -38.93307 -59.90529 36018 ft 429 kts 208°
2026-05-06 11:06 -38.99023 -59.92851 35989 ft 432 kts 208°
2026-05-06 11:06 -39.04755 -59.95183 35979 ft 432 kts 208°
2026-05-06 11:07 -39.10446 -59.97503 35985 ft 432 kts 208°
2026-05-06 11:07 -39.16179 -59.99843 35988 ft 432 kts 208°
2026-05-06 11:08 -39.21906 -60.02185 35984 ft 432 kts 208°
2026-05-06 11:08 -39.27635 -60.04532 35985 ft 432 kts 208°
2026-05-06 11:09 -39.33359 -60.06881 35990 ft 432 kts 208°
2026-05-06 11:09 -39.39084 -60.09233 36007 ft 432 kts 208°
2026-05-06 11:10 -39.44820 -60.11596 35990 ft 433 kts 208°
2026-05-06 11:10 -39.50568 -60.13967 35988 ft 433 kts 208°
2026-05-06 11:11 -39.56316 -60.16342 35990 ft 433 kts 208°
2026-05-06 11:11 -39.62066 -60.18721 35994 ft 436 kts 208°
2026-05-06 11:12 -39.67866 -60.21127 36001 ft 438 kts 208°
2026-05-06 11:12 -39.73676 -60.23540 35996 ft 438 kts 208°
2026-05-06 11:13 -39.79480 -60.25955 35997 ft 438 kts 208°
2026-05-06 11:13 -39.85292 -60.28378 36000 ft 439 kts 207°
2026-05-06 11:14 -39.90132 -60.30399 35996 ft 440 kts 207°
2026-05-06 11:14 -39.95962 -60.32838 35998 ft 440 kts 207°
2026-05-06 11:15 -40.01786 -60.35277 35997 ft 440 kts 208°
2026-05-06 11:15 -40.07618 -60.37725 36003 ft 440 kts 207°
2026-05-06 11:16 -40.13454 -60.40179 36003 ft 440 kts 207°
2026-05-06 11:16 -40.19288 -60.42637 35993 ft 440 kts 207°
2026-05-06 11:17 -40.25121 -60.45099 35995 ft 440 kts 207°
2026-05-06 11:17 -40.30962 -60.47567 36004 ft 443 kts 207°
2026-05-06 11:18 -40.36837 -60.50054 36005 ft 444 kts 207°
2026-05-06 11:18 -40.42670 -60.52529 35998 ft 444 kts 207°
2026-05-06 11:19 -40.48554 -60.55013 36007 ft 445 kts 206°
2026-05-06 11:19 -40.54505 -60.57322 36003 ft 446 kts 206°
2026-05-06 11:20 -40.60455 -60.59650 36004 ft 446 kts 206°
2026-05-06 11:20 -40.66401 -60.61983 36001 ft 446 kts 206°
2026-05-06 11:21 -40.72347 -60.64320 36010 ft 446 kts 206°
2026-05-06 11:21 -40.78287 -60.66660 36005 ft 446 kts 206°
2026-05-06 11:22 -40.84230 -60.69006 36005 ft 446 kts 206°
2026-05-06 11:22 -40.90171 -60.71354 36007 ft 446 kts 206°
2026-05-06 11:23 -40.96112 -60.73708 36010 ft 446 kts 205°
2026-05-06 11:23 -41.02061 -60.76068 36010 ft 447 kts 205°
2026-05-06 11:24 -41.08028 -60.78441 36011 ft 448 kts 205°
2026-05-06 11:24 -41.13993 -60.80817 36007 ft 448 kts 205°
2026-05-06 11:25 -41.19957 -60.83198 36001 ft 448 kts 205°
2026-05-06 11:25 -41.25927 -60.85585 36005 ft 448 kts 205°
2026-05-06 11:26 -41.31892 -60.87975 36007 ft 448 kts 205°
2026-05-06 11:26 -41.37865 -60.90372 36014 ft 449 kts 205°
2026-05-06 11:27 -41.43805 -60.92761 36012 ft 449 kts 205°
2026-05-06 11:27 -41.49788 -60.95172 35997 ft 449 kts 205°
2026-05-06 11:28 -41.55772 -60.97587 36021 ft 449 kts 205°
2026-05-06 11:28 -41.61750 -61.00006 36009 ft 450 kts 205°
2026-05-06 11:29 -41.67748 -61.02437 36010 ft 450 kts 205°
2026-05-06 11:29 -41.73741 -61.04871 36007 ft 450 kts 205°
2026-05-06 11:30 -41.79736 -61.07310 36008 ft 450 kts 205°
2026-05-06 11:30 -41.85726 -61.09751 36024 ft 451 kts 205°
2026-05-06 11:31 -41.91739 -61.12208 36012 ft 452 kts 205°
2026-05-06 11:31 -41.97754 -61.14670 36006 ft 452 kts 205°
2026-05-06 11:32 -42.03766 -61.17135 36006 ft 451 kts 205°
2026-05-06 11:32 -42.09767 -61.19601 36020 ft 451 kts 205°
2026-05-06 11:33 -42.15771 -61.22073 36009 ft 451 kts 205°
2026-05-06 11:33 -42.21779 -61.24552 36027 ft 451 kts 205°
2026-05-06 11:34 -42.27773 -61.27029 36012 ft 450 kts 205°
2026-05-06 11:34 -42.33755 -61.29507 36015 ft 450 kts 205°
2026-05-06 11:35 -42.39742 -61.31992 36021 ft 450 kts 205°
2026-05-06 11:35 -42.45722 -61.34479 36012 ft 449 kts 205°
2026-05-06 11:36 -42.51685 -61.36963 36019 ft 448 kts 205°
2026-05-06 11:36 -42.57648 -61.39453 36021 ft 448 kts 205°
2026-05-06 11:37 -42.63605 -61.41944 36041 ft 448 kts 205°
2026-05-06 11:37 -42.69507 -61.44418 36028 ft 445 kts 205°
2026-05-06 11:38 -42.75417 -61.46901 36020 ft 444 kts 205°
2026-05-06 11:38 -42.81327 -61.49387 36019 ft 445 kts 205°
2026-05-06 11:39 -42.87241 -61.51880 36017 ft 445 kts 205°
2026-05-06 11:39 -42.93146 -61.54374 36022 ft 444 kts 205°
2026-05-06 11:40 -42.99058 -61.56878 36026 ft 445 kts 205°
2026-05-06 11:40 -43.04965 -61.59385 36018 ft 445 kts 205°
2026-05-06 11:41 -43.10875 -61.61896 36023 ft 445 kts 205°
2026-05-06 11:41 -43.16788 -61.64414 36039 ft 445 kts 205°
2026-05-06 11:42 -43.22696 -61.66935 36020 ft 445 kts 205°
2026-05-06 11:42 -43.28604 -61.69461 36018 ft 445 kts 205°
2026-05-06 11:43 -43.34516 -61.71994 36037 ft 445 kts 205°
2026-05-06 11:43 -43.40412 -61.74525 36019 ft 443 kts 205°
2026-05-06 11:44 -43.49248 -61.78328 36022 ft 444 kts 205°
2026-05-06 11:44 -43.55144 -61.80872 36025 ft 444 kts 205°
2026-05-06 11:45 -43.61001 -61.83404 36024 ft 444 kts 205°
2026-05-06 11:45 -43.66885 -61.85954 36029 ft 443 kts 205°
2026-05-06 11:46 -43.72776 -61.88511 36032 ft 444 kts 205°
2026-05-06 11:46 -43.78680 -61.91080 36027 ft 445 kts 205°
2026-05-06 11:47 -43.84582 -61.93653 36020 ft 444 kts 205°
2026-05-06 11:47 -43.90471 -61.96225 36028 ft 444 kts 205°
2026-05-06 11:48 -43.96358 -61.98803 36023 ft 444 kts 205°
2026-05-06 11:48 -44.02253 -62.01389 36032 ft 444 kts 205°
2026-05-06 11:49 -44.08137 -62.03975 36024 ft 442 kts 205°
2026-05-06 11:49 -44.13998 -62.06557 36026 ft 442 kts 205°
2026-05-06 11:50 -44.19857 -62.09144 36027 ft 442 kts 205°
2026-05-06 11:50 -44.25720 -62.11737 36040 ft 442 kts 205°
2026-05-06 11:51 -44.31575 -62.14333 36034 ft 440 kts 206°
2026-05-06 11:51 -44.37406 -62.16923 36018 ft 440 kts 206°
2026-05-06 11:52 -44.43235 -62.19518 36022 ft 440 kts 206°
2026-05-06 11:52 -44.49067 -62.22119 36019 ft 440 kts 206°
2026-05-06 11:53 -44.54856 -62.24708 36056 ft 439 kts 206°
2026-05-06 11:53 -44.60666 -62.27310 36017 ft 437 kts 206°
2026-05-06 11:54 -44.66463 -62.29912 36026 ft 438 kts 206°
2026-05-06 11:54 -44.72267 -62.32522 36018 ft 438 kts 206°
2026-05-06 11:55 -44.78068 -62.35137 36035 ft 437 kts 206°
2026-05-06 11:55 -44.83846 -62.37747 36035 ft 435 kts 206°
2026-05-06 11:56 -44.89635 -62.40367 36024 ft 437 kts 206°
2026-05-06 11:56 -44.95431 -62.42995 36028 ft 437 kts 206°
2026-05-06 11:57 -45.01221 -62.45627 36046 ft 437 kts 206°
2026-05-06 11:57 -45.07005 -62.48265 36022 ft 435 kts 206°
2026-05-06 11:58 -45.12773 -62.50900 36023 ft 436 kts 206°
2026-05-06 11:58 -45.18544 -62.53541 36023 ft 436 kts 206°
2026-05-06 11:59 -45.24315 -62.56188 36024 ft 436 kts 206°
2026-05-06 11:59 -45.30082 -62.58838 36022 ft 434 kts 206°
2026-05-06 12:00 -45.35820 -62.61481 36031 ft 435 kts 206°
2026-05-06 12:00 -45.41541 -62.64121 36045 ft 435 kts 206°
2026-05-06 12:01 -45.47300 -62.66785 36031 ft 435 kts 206°
2026-05-06 12:01 -45.53061 -62.69456 36023 ft 435 kts 206°
2026-05-06 12:02 -45.58825 -62.72134 36026 ft 435 kts 206°
2026-05-06 12:02 -45.64586 -62.74816 36023 ft 435 kts 206°
2026-05-06 12:03 -45.70346 -62.77504 36038 ft 436 kts 206°
2026-05-06 12:03 -45.75180 -62.79763 36030 ft 436 kts 206°
2026-05-06 12:04 -45.81878 -62.82902 36023 ft 435 kts 206°
2026-05-06 12:04 -45.86702 -62.85167 36026 ft 436 kts 206°
2026-05-06 12:05 -45.92428 -62.87861 36025 ft 435 kts 206°
2026-05-06 12:05 -45.98218 -62.90591 36024 ft 435 kts 206°
2026-05-06 12:06 -46.03943 -62.93296 36027 ft 436 kts 206°
2026-05-06 12:06 -46.09704 -62.96024 36031 ft 436 kts 206°
2026-05-06 12:07 -46.15469 -62.98761 36034 ft 436 kts 206°
2026-05-06 12:07 -46.21233 -63.01503 36032 ft 436 kts 206°
2026-05-06 12:08 -46.26993 -63.04248 36036 ft 435 kts 206°
2026-05-06 12:08 -46.32739 -63.06994 36032 ft 435 kts 206°
2026-05-06 12:09 -46.38485 -63.09745 36025 ft 435 kts 206°
2026-05-06 12:09 -46.44230 -63.12502 36024 ft 435 kts 206°
2026-05-06 12:10 -46.49978 -63.15268 36021 ft 435 kts 206°
2026-05-06 12:10 -46.55715 -63.18033 36024 ft 433 kts 206°
2026-05-06 12:11 -46.61439 -63.20799 36033 ft 434 kts 206°
2026-05-06 12:11 -46.67134 -63.23556 36029 ft 434 kts 206°
2026-05-06 12:12 -46.72864 -63.26337 36019 ft 434 kts 206°
2026-05-06 12:12 -46.78597 -63.29126 36033 ft 434 kts 206°
2026-05-06 12:13 -46.84306 -63.31908 36022 ft 432 kts 207°
2026-05-06 12:13 -46.90013 -63.34696 36033 ft 432 kts 206°
2026-05-06 12:14 -46.95722 -63.37492 36020 ft 433 kts 206°
2026-05-06 12:14 -47.01449 -63.40302 36021 ft 433 kts 207°
2026-05-06 12:15 -47.07158 -63.43111 36021 ft 432 kts 207°
2026-05-06 12:15 -47.12861 -63.45922 36021 ft 432 kts 207°
2026-05-06 12:16 -47.18566 -63.48742 36020 ft 432 kts 207°
2026-05-06 12:16 -47.24267 -63.51565 36027 ft 433 kts 206°
2026-05-06 12:17 -47.29988 -63.54404 36032 ft 433 kts 206°
2026-05-06 12:17 -47.35698 -63.57245 36020 ft 433 kts 206°
2026-05-06 12:18 -47.41409 -63.60093 36020 ft 433 kts 206°
2026-05-06 12:18 -47.47099 -63.62937 36020 ft 433 kts 206°
2026-05-06 12:19 -47.52814 -63.65799 36028 ft 433 kts 206°
2026-05-06 12:19 -47.58527 -63.68668 36021 ft 433 kts 206°
2026-05-06 12:20 -47.64194 -63.71520 36019 ft 433 kts 206°
2026-05-06 12:20 -47.69895 -63.74396 36013 ft 433 kts 206°
2026-05-06 12:21 -47.75598 -63.77279 36015 ft 433 kts 206°
2026-05-06 12:21 -47.81301 -63.80169 36039 ft 433 kts 206°
2026-05-06 12:22 -47.86993 -63.83060 36012 ft 431 kts 206°
2026-05-06 12:22 -47.92676 -63.85953 36019 ft 432 kts 206°
2026-05-06 12:23 -47.98359 -63.88853 36017 ft 432 kts 206°
2026-05-06 12:23 -48.04044 -63.91759 36021 ft 432 kts 206°
2026-05-06 12:24 -48.09726 -63.94670 36015 ft 432 kts 206°
2026-05-06 12:24 -48.15405 -63.97587 36018 ft 432 kts 206°
2026-05-06 12:25 -48.21093 -64.00516 36015 ft 432 kts 206°
2026-05-06 12:25 -48.26771 -64.03448 36015 ft 432 kts 207°
2026-05-06 12:26 -48.32412 -64.06374 36015 ft 432 kts 206°
2026-05-06 12:26 -48.38087 -64.09318 36017 ft 430 kts 207°
2026-05-06 12:27 -48.43727 -64.12252 36013 ft 429 kts 207°
2026-05-06 12:27 -48.49377 -64.15197 36002 ft 430 kts 207°
2026-05-06 12:28 -48.55040 -64.18156 36008 ft 431 kts 207°
2026-05-06 12:28 -48.60695 -64.21118 36008 ft 430 kts 207°
2026-05-06 12:29 -48.66348 -64.24086 36014 ft 429 kts 207°
2026-05-06 12:29 -48.71985 -64.27052 36011 ft 429 kts 207°
2026-05-06 12:30 -48.77616 -64.30022 36028 ft 429 kts 207°
2026-05-06 12:30 -48.83263 -64.33008 36017 ft 430 kts 207°
2026-05-06 12:31 -48.88913 -64.36003 36006 ft 430 kts 207°
2026-05-06 12:31 -48.94557 -64.39002 36008 ft 429 kts 207°
2026-05-06 12:32 -49.00190 -64.42002 36005 ft 429 kts 207°
2026-05-06 12:32 -49.05826 -64.45011 36004 ft 429 kts 207°
2026-05-06 12:33 -49.11454 -64.48022 36018 ft 429 kts 207°
2026-05-06 12:33 -49.17099 -64.51050 36029 ft 430 kts 207°
2026-05-06 12:34 -49.22742 -64.54085 36004 ft 429 kts 207°
2026-05-06 12:34 -49.28373 -64.57120 36001 ft 429 kts 207°
2026-05-06 12:35 -49.34007 -64.60165 36000 ft 429 kts 207°
2026-05-06 12:35 -49.39639 -64.63215 35996 ft 429 kts 207°
2026-05-06 12:36 -49.45273 -64.66275 36037 ft 430 kts 207°
2026-05-06 12:36 -49.50913 -64.69344 36001 ft 429 kts 207°
2026-05-06 12:37 -49.56547 -64.72418 35999 ft 430 kts 207°
2026-05-06 12:37 -49.62177 -64.75498 35999 ft 430 kts 207°
2026-05-06 12:38 -49.67813 -64.78588 35996 ft 430 kts 207°
2026-05-06 12:38 -49.73449 -64.81686 36015 ft 430 kts 207°
2026-05-06 12:39 -49.79073 -64.84785 35998 ft 429 kts 207°
2026-05-06 12:39 -49.84703 -64.87895 35995 ft 430 kts 207°
2026-05-06 12:40 -49.90303 -64.90996 35993 ft 430 kts 207°
2026-05-06 12:40 -49.95938 -64.94125 35994 ft 430 kts 207°
2026-05-06 12:41 -50.01574 -64.97261 36007 ft 430 kts 207°
2026-05-06 12:41 -50.07200 -65.00400 35989 ft 429 kts 207°
2026-05-06 12:42 -50.12830 -65.03549 35996 ft 431 kts 207°
2026-05-06 12:42 -50.18475 -65.06715 35989 ft 431 kts 207°
2026-05-06 12:43 -50.24115 -65.09885 35991 ft 431 kts 207°
2026-05-06 12:43 -50.29769 -65.13071 36006 ft 431 kts 207°
2026-05-06 12:44 -50.35405 -65.16255 35990 ft 430 kts 207°
2026-05-06 12:44 -50.41029 -65.19441 35990 ft 430 kts 207°
2026-05-06 12:45 -50.46664 -65.22641 35986 ft 432 kts 207°
2026-05-06 12:46 -50.55143 -65.27471 35989 ft 432 kts 207°
2026-05-06 12:46 -50.60758 -65.30679 35991 ft 432 kts 207°
2026-05-06 12:47 -50.66393 -65.33908 35984 ft 430 kts 207°
2026-05-06 12:47 -50.72024 -65.37143 35980 ft 431 kts 207°
2026-05-06 12:48 -50.77656 -65.40386 35992 ft 431 kts 207°
2026-05-06 12:48 -50.83305 -65.43647 35979 ft 433 kts 207°
2026-05-06 12:49 -50.88959 -65.46920 35979 ft 433 kts 207°
2026-05-06 12:49 -50.94622 -65.50206 35980 ft 433 kts 207°
2026-05-06 12:50 -51.00279 -65.53498 35977 ft 433 kts 207°
2026-05-06 12:50 -51.05933 -65.56797 35976 ft 433 kts 207°
2026-05-06 12:51 -51.11586 -65.60103 35989 ft 433 kts 207°
2026-05-06 12:51 -51.17262 -65.63431 35998 ft 436 kts 207°
2026-05-06 12:52 -51.21982 -65.66206 35968 ft 434 kts 207°
2026-05-06 12:52 -51.27648 -65.69545 35978 ft 434 kts 207°
2026-05-06 12:53 -51.33315 -65.72893 35974 ft 434 kts 207°
2026-05-06 12:53 -51.38981 -65.76250 35971 ft 434 kts 207°
2026-05-06 12:54 -51.44646 -65.79614 35974 ft 434 kts 207°
2026-05-06 12:54 -51.50308 -65.82984 35976 ft 433 kts 207°
2026-05-06 12:55 -51.55951 -65.86352 35972 ft 433 kts 207°
2026-05-06 12:55 -51.61599 -65.89731 35971 ft 433 kts 207°
2026-05-06 12:56 -51.67245 -65.93118 35971 ft 433 kts 207°
2026-05-06 12:56 -51.72894 -65.96516 35971 ft 433 kts 207°
2026-05-06 12:57 -51.78543 -65.99898 35975 ft 434 kts 205°
2026-05-06 12:57 -51.84264 -66.03055 35967 ft 436 kts 205°
2026-05-06 12:58 -51.90016 -66.06255 35967 ft 436 kts 205°
2026-05-06 12:58 -51.95755 -66.09460 35971 ft 436 kts 205°
2026-05-06 12:59 -52.01459 -66.12653 35959 ft 436 kts 205°
2026-05-06 12:59 -52.07197 -66.15873 35977 ft 436 kts 205°
2026-05-06 13:00 -52.12921 -66.19097 35963 ft 435 kts 205°
2026-05-06 13:00 -52.18648 -66.22328 35979 ft 437 kts 205°
2026-05-06 13:01 -52.24398 -66.25583 35970 ft 438 kts 205°
2026-05-06 13:01 -52.30161 -66.28854 35963 ft 438 kts 205°
2026-05-06 13:02 -52.35913 -66.32127 35979 ft 438 kts 205°
2026-05-06 13:02 -52.41662 -66.35409 35962 ft 437 kts 205°
2026-05-06 13:03 -52.47405 -66.38695 35968 ft 437 kts 205°
2026-05-06 13:03 -52.53144 -66.41988 35980 ft 437 kts 205°
2026-05-06 13:04 -52.58899 -66.45300 35960 ft 439 kts 205°
2026-05-06 13:04 -52.64669 -66.48630 35970 ft 439 kts 205°
2026-05-06 13:05 -52.70434 -66.51966 35954 ft 438 kts 205°
2026-05-06 13:05 -52.76155 -66.55286 35956 ft 439 kts 205°
2026-05-06 13:06 -52.81914 -66.58637 35956 ft 439 kts 205°
2026-05-06 13:06 -52.87665 -66.61992 35955 ft 438 kts 205°
2026-05-06 13:07 -52.93412 -66.65377 35956 ft 439 kts 206°
2026-05-06 13:07 -52.99127 -66.68962 35954 ft 439 kts 206°
2026-05-06 13:08 -53.04848 -66.72540 35959 ft 439 kts 206°
2026-05-06 13:08 -53.10564 -66.76121 35954 ft 439 kts 206°
2026-05-06 13:09 -53.16280 -66.79712 35950 ft 439 kts 206°
2026-05-06 13:09 -53.22004 -66.83319 35947 ft 439 kts 206°
2026-05-06 13:10 -53.27716 -66.86927 35969 ft 439 kts 205°
2026-05-06 13:10 -53.33442 -66.90558 35958 ft 441 kts 205°
2026-05-06 13:11 -53.39166 -66.94196 35943 ft 441 kts 205°
2026-05-06 13:11 -53.44897 -66.97849 35942 ft 441 kts 206°
2026-05-06 13:12 -53.50660 -67.01533 35934 ft 446 kts 205°
2026-05-06 13:12 -53.56460 -67.05251 35951 ft 446 kts 205°
2026-05-06 13:13 -53.62242 -67.08969 35940 ft 444 kts 205°
2026-05-06 13:13 -53.68032 -67.12703 35942 ft 447 kts 205°
2026-05-06 13:14 -53.73880 -67.16486 35938 ft 454 kts 205°
2026-05-06 13:14 -53.79788 -67.20319 35942 ft 455 kts 205°
2026-05-06 13:15 -53.85702 -67.24167 35937 ft 455 kts 205°
2026-05-06 13:15 -53.91613 -67.28026 35939 ft 455 kts 205°
2026-05-06 13:16 -53.97525 -67.31896 35940 ft 455 kts 205°
2026-05-06 13:16 -54.03397 -67.35751 35949 ft 456 kts 205°
2026-05-06 13:17 -54.09322 -67.39655 35940 ft 456 kts 205°
2026-05-06 13:17 -54.15242 -67.43566 35948 ft 457 kts 205°
2026-05-06 13:18 -54.21165 -67.47492 35938 ft 456 kts 205°
2026-05-06 13:18 -54.27073 -67.51420 35943 ft 456 kts 205°
2026-05-06 13:18 -54.30024 -67.53384 35745 ft 448 kts 205°
2026-05-06 13:19 -54.32907 -67.55309 34942 ft 443 kts 205°
2026-05-06 13:19 -54.35764 -67.57218 34048 ft 440 kts 205°
2026-05-06 13:19 -54.38608 -67.59121 33049 ft 441 kts 205°
2026-05-06 13:19 -54.41496 -67.61056 32014 ft 449 kts 205°
2026-05-06 13:20 -54.44412 -67.63012 31158 ft 446 kts 206°
2026-05-06 13:20 -54.47257 -67.64919 30701 ft 431 kts 205°
2026-05-06 13:20 -54.50152 -67.66240 29724 ft 436 kts 190°
2026-05-06 13:20 -54.53203 -67.66285 28472 ft 442 kts 180°
2026-05-06 13:21 -54.56277 -67.66016 27263 ft 442 kts 180°
2026-05-06 13:21 -54.59344 -67.65723 26118 ft 442 kts 179°
2026-05-06 13:21 -54.62414 -67.65402 24944 ft 443 kts 179°
2026-05-06 13:21 -54.65483 -67.65066 23960 ft 439 kts 179°
2026-05-06 13:22 -54.68515 -67.64786 22970 ft 432 kts 184°
2026-05-06 13:22 -54.71381 -67.65583 22018 ft 418 kts 202°
2026-05-06 13:22 -54.73859 -67.67960 21159 ft 401 kts 223°
2026-05-06 13:22 -54.75655 -67.71521 20180 ft 388 kts 244°
2026-05-06 13:23 -54.76571 -67.75806 19282 ft 375 kts 265°
2026-05-06 13:23 -54.76476 -67.80220 18430 ft 363 kts 287°
2026-05-06 13:23 -54.75366 -67.84050 17496 ft 355 kts 311°
2026-05-06 13:23 -54.73427 -67.86583 16586 ft 351 kts 336°
2026-05-06 13:24 -54.71046 -67.87284 15683 ft 352 kts
2026-05-06 13:24 -54.68638 -67.86518 14727 ft 351 kts
2026-05-06 13:24 -54.66227 -67.86026 13906 ft 347 kts
2026-05-06 13:24 -54.63837 -67.85430 12968 ft 345 kts
2026-05-06 13:25 -54.61497 -67.84817 12299 ft 337 kts
2026-05-06 13:25 -54.59233 -67.83999 11747 ft 328 kts 12°
2026-05-06 13:25 -54.57077 -67.82895 11238 ft 319 kts 15°
2026-05-06 13:25 -54.54961 -67.82136 10777 ft 304 kts
2026-05-06 13:26 -54.52935 -67.81319 10364 ft 301 kts 25°
2026-05-06 13:26 -54.51372 -67.79002 10256 ft 296 kts 52°
2026-05-06 13:26 -54.50455 -67.75862 9955 ft 297 kts 71°
2026-05-06 13:26 -54.50163 -67.72353 9586 ft 298 kts 93°
2026-05-06 13:27 -54.50655 -67.68934 9256 ft 295 kts 117°
2026-05-06 13:27 -54.51864 -67.66141 8931 ft 291 kts 140°
2026-05-06 13:27 -54.53542 -67.64307 8589 ft 285 kts 162°
2026-05-06 13:27 -54.55462 -67.63814 8258 ft 277 kts 187°
2026-05-06 13:28 -54.57294 -67.64676 7919 ft 272 kts 205°
2026-05-06 13:28 -54.59050 -67.65923 7584 ft 272 kts 204°
2026-05-06 13:28 -54.60802 -67.67127 7269 ft 271 kts 203°
2026-05-06 13:28 -54.62552 -67.68316 6949 ft 269 kts 203°
2026-05-06 13:29 -54.64291 -67.69488 6634 ft 268 kts 202°
2026-05-06 13:29 -54.66013 -67.70647 6429 ft 263 kts 202°
2026-05-06 13:29 -54.67697 -67.71780 6257 ft 257 kts 202°
2026-05-06 13:29 -54.69347 -67.72891 6072 ft 252 kts 202°
2026-05-06 13:30 -54.70965 -67.73978 5879 ft 247 kts 202°
2026-05-06 13:30 -54.72557 -67.75047 5686 ft 245 kts 202°
2026-05-06 13:30 -54.74142 -67.76111 5487 ft 244 kts 202°
2026-05-06 13:30 -54.75725 -67.77172 5306 ft 244 kts 202°
2026-05-06 13:31 -54.77283 -67.78218 5150 ft 243 kts 202°
2026-05-06 13:31 -54.78852 -67.79272 5120 ft 242 kts 202°
2026-05-06 13:31 -54.80418 -67.80339 5119 ft 241 kts 206°
2026-05-06 13:31 -54.81710 -67.82072 5065 ft 234 kts 234°
2026-05-06 13:32 -54.82386 -67.84610 5107 ft 234 kts 256°
2026-05-06 13:32 -54.82652 -67.87411 5118 ft 236 kts 263°
2026-05-06 13:32 -54.82802 -67.90238 5128 ft 231 kts 265°
2026-05-06 13:32 -54.82915 -67.92911 5135 ft 212 kts 265°
2026-05-06 13:33 -54.83015 -67.95428 4815 ft 210 kts 265°
2026-05-06 13:33 -54.83112 -67.97948 4393 ft 208 kts 265°
2026-05-06 13:33 -54.83206 -68.00395 3983 ft 198 kts 265°
2026-05-06 13:33 -54.83295 -68.02697 3612 ft 183 kts 266°
2026-05-06 13:34 -54.83376 -68.04793 3280 ft 166 kts 266°
2026-05-06 13:34 -54.83448 -68.06681 3032 ft 151 kts 266°
2026-05-06 13:34 -54.83517 -68.08476 2748 ft 148 kts 266°
2026-05-06 13:34 -54.83585 -68.10253 2455 ft 147 kts 266°
2026-05-06 13:35 -54.83652 -68.12015 2169 ft 146 kts 266°
2026-05-06 13:35 -54.83719 -68.13759 1890 ft 145 kts 267°
2026-05-06 13:35 -54.83786 -68.15494 1660 ft 144 kts 267°
2026-05-06 13:35 -54.83844 -68.17224 1430 ft 143 kts 268°
2026-05-06 13:36 -54.83906 -68.18936 1207 ft 142 kts 266°
2026-05-06 13:36 -54.83972 -68.20641 1008 ft 141 kts 266°
2026-05-06 13:36 -54.84033 -68.22345 794 ft 142 kts 267°
2026-05-06 13:36 -54.84105 -68.24062 563 ft 143 kts 267°
2026-05-06 13:37 -54.84182 -68.25783 351 ft 144 kts 266°
2026-05-06 13:37 -54.84252 -68.27519 110 ft 144 kts 266°
2026-05-06 13:37 -54.84313 -68.29103 59 ft 107 kts 266°
2026-05-06 13:37 -54.84352 -68.30128 58 ft 69 kts 266°
2026-05-06 13:38 -54.84376 -68.30730 85 ft 32 kts 266°
2026-05-06 13:38 -54.84386 -68.30988 113 ft 16 kts 266°
2026-05-06 13:38 -54.84394 -68.31190 121 ft 18 kts 266°
2026-05-06 13:38 -54.84361 -68.31315 65 ft 10 kts 358°
2026-05-06 13:39 -54.84287 -68.31320 66 ft 9 kts 356°
2026-05-06 13:39 -54.84250 -68.31324 67 ft 7 kts 356°
2026-05-06 13:39 -54.84211 -68.31328 74 ft 4 kts 356°
2026-05-06 13:39 -54.84188 -68.31330 73 ft 3 kts 358°
2026-05-06 13:40 -54.84117 -68.31315 81 ft 12 kts 39°
2026-05-06 13:40 -54.84064 -68.31270 83 ft 12 kts 13°
2026-05-06 13:40 -54.84038 -68.31260 79 ft 1 kts 12°
2026-05-06 13:40 -54.84030 -68.31258 84 ft 0 kts 11°